Regional Weather Roundup
Issued by NWS

Home | Current Version | Previous Version | Text Only | Print | Product List | Glossary On
Versions: 1 2 3 4 5 6 7 8 9 10 11 12 13 14 15 16 17 18 19 20 21 22 23 24 25 26 27 28 29 30 31 32 33 34 35 36 37 38 39 40 41 42 43 44 45 46 47 48 49 50
000
ASUS45 KREV 261110
RWRNV
NEVADA REGIONAL WEATHER ROUNDUP
NATIONAL WEATHER SERVICE RENO NV
300 AM PST SUN FEB 26 2017

NOTE: "FAIR" INDICATES FEW OR NO CLOUDS BELOW 12,000 FEET WITH NO
SIGNIFICANT WEATHER AND/OR OBSTRUCTIONS TO VISIBILITY.

NVZ001-003-004-261200-
WESTERN NEVADA

CITY           SKY/WX    TMP DP  RH WIND       PRES   REMARKS
RENO           PTCLDY    26  19  74 NW3       29.92F
CARSON CITY    FAIR      27  23  86 CALM      29.92F
MINDEN         FAIR      21  19  93 S6        29.91F
PYRAMID LAKE     N/A     32 N/A N/A S5          N/A
FALLON         CLEAR     25  21  85 CALM      29.93F
LOVELOCK         N/A     21  17  84 CALM      29.94F
HAWTHORNE      CLOUDY    30  19  64 S3        29.94F
$$

NVZ002-CAZ072-073-261200-
NORTHERN AND CENTRAL SIERRA

CITY           SKY/WX    TMP DP  RH WIND       PRES   REMARKS
S. LAKE TAHOE  PTCLDY    11   8  88 S5        29.86F
TRUCKEE        FOG       10   9  92 CALM      29.89F VSB 3/4
SQUAW VLY 8000   N/A     16  16 100 SW3         N/A
SUSANVILLE     CLEAR    N/A N/A N/A CALM      29.93F
MAMMOTH LAKES  FAIR      10   2  72 CALM      29.87S
BRIDGEPORT       N/A     16   6  65 N5        29.86F
$$

NVZ030-031-036-261200-
NORTHERN NEVADA

CITY           SKY/WX    TMP DP  RH WIND       PRES   REMARKS
ELKO           CLEAR     17  12  80 CALM      29.90F
WINNEMUCCA     NOT AVBL
WENDOVER       CLEAR     19  12  73 W3        29.94F
$$

NVZ035-037-261200-
CENTRAL NEVADA

CITY           SKY/WX    TMP DP  RH WIND       PRES   REMARKS
ELY            CLEAR      4   1  88 S12       29.89F WCI -12
EUREKA           N/A     13   7  77 SE3       29.89F
$$

NVZ013-014-261200-
SOUTH CENTRAL NEVADA

CITY           SKY/WX    TMP DP  RH WIND       PRES   REMARKS
TONOPAH        CLEAR     26  19  74 N12       29.89F
$$

NVZ017-020-022-261200-
SOUTHERN NEVADA

CITY           SKY/WX    TMP DP  RH WIND       PRES   REMARKS
LAS VEGAS      MOCLDY    41  24  51 S3        29.89F
N. LAS VEGAS   CLEAR     39  25  57 NW3       29.90F
NELLIS AFB     CLEAR     37  27  67 CALM      29.91F
HENDERSON      MOCLDY    37  24  59 SE6       29.91F
MERCURY        CLEAR     36  20  52 NE7       29.88F
$$



USA.gov is the U.S. government's official web portal to all federal, state and local government web resources and services.